| time (UTC) | temp F | wind direction | speed knots | gust knots | rain 1hr in | rain 24hr in | rain mn in | humidity % | barometer mb |
| 20260507221526 | 59 | 0.0 | 0.0 | 0.00 | 0.03 | 0.00 | 71 | 1014.3 | |
| 20260507214532 | 58 | 132 | 0.9 | 1.7 | 0.00 | 0.03 | 0.03 | 74 | 1014.3 |
| 20260507211516 | 59 | 125 | 0.0 | 0.9 | 0.00 | 0.03 | 0.03 | 75 | 1014.5 |
| 20260507204522 | 59 | 134 | 0.0 | 0.9 | 0.00 | 0.03 | 0.03 | 75 | 1014.5 |
| 20260507201527 | 59 | 116 | 0.0 | 0.9 | 0.00 | 0.03 | 0.03 | 74 | 1014.6 |
| 20260507194530 | 59 | 115 | 0.0 | 0.9 | 0.00 | 0.03 | 0.03 | 73 | 1014.5 |
| 20260507191535 | 60 | 122 | 0.0 | 1.7 | 0.00 | 0.03 | 0.03 | 71 | 1014.3 |
| 20260507184521 | 61 | 119 | 0.9 | 1.7 | 0.00 | 0.03 | 0.03 | 70 | 1014.1 |
| 20260507181526 | 62 | 112 | 0.9 | 3.5 | 0.00 | 0.03 | 0.03 | 69 | 1013.9 |
| 20260507174531 | 63 | 96 | 1.7 | 3.5 | 0.00 | 0.03 | 0.03 | 70 | 1013.5 |
| 20260507171534 | 64 | 124 | 0.9 | 1.7 | 0.00 | 0.03 | 0.03 | 65 | 1013.2 |
| 20260507164519 | 70 | 107 | 0.9 | 6.1 | 0.00 | 0.03 | 0.03 | 58 | 1013.1 |
| 20260507161524 | 75 | 109 | 1.7 | 7.0 | 0.00 | 0.03 | 0.03 | 52 | 1013.1 |
| 20260507154529 | 73 | 102 | 3.5 | 8.7 | 0.00 | 0.03 | 0.03 | 55 | 1013.0 |
| 20260507151534 | 72 | 90 | 2.6 | 6.1 | 0.00 | 0.03 | 0.03 | 56 | 1013.0 |
| 20260507144516 | 73 | 82 | 3.5 | 6.1 | 0.00 | 0.03 | 0.03 | 58 | 1013.2 |
| 20260507141517 | 72 | 77 | 2.6 | 5.2 | 0.00 | 0.03 | 0.03 | 55 | 1013.2 |
| 20260507134521 | 73 | 57 | 2.6 | 6.1 | 0.00 | 0.03 | 0.03 | 54 | 1013.3 |
| 20260507131525 | 74 | 27 | 2.6 | 6.1 | 0.00 | 0.03 | 0.03 | 53 | 1013.5 |
| 20260507124531 | 75 | 231 | 0.0 | 1.7 | 0.00 | 0.03 | 0.03 | 41 | 1013.5 |
| 20260507121516 | 75 | 228 | 0.0 | 1.7 | 0.00 | 0.03 | 0.03 | 41 | 1013.6 |
| 20260507114521 | 76 | 228 | 1.7 | 5.2 | 0.00 | 0.03 | 0.03 | 43 | 1013.7 |
| 20260507111523 | 73 | 217 | 2.6 | 6.1 | 0.00 | 0.03 | 0.03 | 48 | 1013.8 |
| 20260507104526 | 73 | 235 | 2.6 | 7.0 | 0.00 | 0.03 | 0.03 | 49 | 1014.2 |
| 20260507101530 | 72 | 225 | 1.7 | 3.5 | 0.00 | 0.03 | 0.03 | 53 | 1014.3 |
| 20260507094516 | 72 | 232 | 1.7 | 5.2 | 0.00 | 0.03 | 0.03 | 54 | 1014.5 |
| 20260507091521 | 66 | 228 | 1.7 | 3.5 | 0.00 | 0.03 | 0.03 | 60 | 1014.4 |
| 20260507084526 | 67 | 235 | 2.6 | 6.1 | 0.00 | 0.03 | 0.03 | 59 | 1014.4 |
| 20260507081530 | 67 | 235 | 1.7 | 3.5 | 0.00 | 0.03 | 0.03 | 63 | 1014.1 |
| 20260507074533 | 70 | 234 | 1.7 | 5.2 | 0.00 | 0.03 | 0.03 | 57 | 1013.9 |
| 20260507071519 | 74 | 151 | 0.0 | 1.7 | 0.00 | 0.03 | 0.03 | 56 | 1013.8 |
| 20260507064524 | 72 | 254 | 0.0 | 0.9 | 0.00 | 0.03 | 0.03 | 57 | 1013.8 |
| 20260507061529 | 72 | 220 | 0.0 | 1.7 | 0.00 | 0.03 | 0.03 | 57 | 1013.6 |
| 20260507054534 | 63 | 109 | 0.0 | 0.9 | 0.00 | 0.03 | 0.03 | 77 | 1013.6 |
| 20260507051517 | 61 | 101 | 0.0 | 0.9 | 0.00 | 0.03 | 0.03 | 80 | 1013.4 |
| 20260507044519 | 58 | 140 | 0.0 | 0.9 | 0.00 | 0.03 | 0.03 | 86 | 1012.9 |
| 20260507041525 | 57 | 234 | 0.9 | 1.7 | 0.00 | 0.03 | 0.03 | 86 | 1012.6 |
| 20260507034530 | 57 | 247 | 0.0 | 0.9 | 0.00 | 0.03 | 0.03 | 89 | 1012.5 |
| 20260507031535 | 57 | 0.0 | 0.0 | 0.01 | 0.03 | 0.03 | 86 | 1012.3 | |
| 20260507024520 | 58 | 0.0 | 0.0 | 0.02 | 0.03 | 0.03 | 84 | 1012.5 | |
| 20260507021522 | 58 | 238 | 0.0 | 0.9 | 0.02 | 0.02 | 0.02 | 81 | 1012.3 |
| 20260507014524 | 59 | 0.0 | 0.0 | 0.01 | 0.01 | 0.01 | 79 | 1012.3 | |
| 20260507011526 | 60 | 226 | 0.0 | 0.9 | 0.00 | 0.00 | 0.00 | 76 | 1012.2 |
| 20260507004531 | 61 | 221 | 0.0 | 0.9 | 0.00 | 0.00 | 0.00 | 73 | 1012.2 |
| 20260507001516 | 61 | 0.0 | 0.0 | 0.00 | 0.00 | 0.00 | 72 | 1012.1 | |
| 20260506234521 | 62 | 236 | 0.9 | 2.6 | 0.00 | 0.00 | 0.00 | 71 | 1012.1 |
| 20260506231526 | 62 | 228 | 3.5 | 6.1 | 0.00 | 0.00 | 0.00 | 69 | 1012.1 |
| 20260506224530 | 63 | 220 | 1.7 | 3.5 | 0.00 | 0.00 | 0.00 | 67 | 1012.3 |